Time,TemperatureF,DewpointF,PressureIn,WindDirection,WindDirectionDegrees,WindSpeedMPH,WindSpeedGustMPH,Humidity,HourlyPrecipIn,Conditions,Clouds,dailyrainin,SoftwareType,DateUTC
2013-05-21 00:12:00,64.2,64.0,30.03,SE,135,0.0,1.0,98,0.00,,,0.00,weatherlink.com 1.10,2013-05-21 05:12:00,
2013-05-21 00:27:00,63.9,63.0,30.03,SE,135,0.0,0.0,98,0.00,,,0.00,weatherlink.com 1.10,2013-05-21 05:27:00,
2013-05-21 00:42:00,63.7,63.0,30.02,SE,135,0.0,1.0,98,0.00,,,0.00,weatherlink.com 1.10,2013-05-21 05:42:00,
2013-05-21 00:58:00,63.5,63.0,30.02,SE,135,0.0,0.0,98,0.00,,,0.00,weatherlink.com 1.10,2013-05-21 05:58:00,
2013-05-21 01:13:00,63.4,63.0,30.02,SE,135,0.0,0.0,98,0.00,,,0.00,weatherlink.com 1.10,2013-05-21 06:13:00,
2013-05-21 01:28:00,63.6,63.0,30.02,SE,135,0.0,1.0,98,0.00,,,0.00,weatherlink.com 1.10,2013-05-21 06:28:00,
2013-05-21 01:43:00,63.2,63.0,30.02,SE,135,0.0,0.0,98,0.00,,,0.00,weatherlink.com 1.10,2013-05-21 06:43:00,
2013-05-21 01:58:00,62.8,62.0,30.02,SE,135,0.0,0.0,98,0.00,,,0.00,weatherlink.com 1.10,2013-05-21 06:58:00,
2013-05-21 02:13:00,62.5,62.0,30.02,SE,135,0.0,0.0,98,0.00,,,0.00,weatherlink.com 1.10,2013-05-21 07:13:00,
2013-05-21 02:28:00,62.2,62.0,30.01,SE,135,0.0,0.0,98,0.00,,,0.00,weatherlink.com 1.10,2013-05-21 07:28:00,
2013-05-21 02:43:00,62.0,62.0,30.01,SE,135,0.0,0.0,98,0.00,,,0.00,weatherlink.com 1.10,2013-05-21 07:43:00,
2013-05-21 02:58:00,61.7,62.0,30.01,SE,135,0.0,0.0,99,0.00,,,0.00,weatherlink.com 1.10,2013-05-21 07:58:00,
2013-05-21 03:13:00,61.4,61.0,30.01,SE,135,0.0,0.0,99,0.00,,,0.00,weatherlink.com 1.10,2013-05-21 08:13:00,
2013-05-21 03:28:00,61.3,61.0,30.01,SE,136,0.0,0.0,99,0.00,,,0.00,weatherlink.com 1.10,2013-05-21 08:28:00,
2013-05-21 03:43:00,61.5,61.0,30.01,SE,135,0.0,0.0,99,0.00,,,0.00,weatherlink.com 1.10,2013-05-21 08:43:00,
2013-05-21 03:58:00,61.1,61.0,30.01,SSE,155,0.0,1.0,99,0.00,,,0.00,weatherlink.com 1.10,2013-05-21 08:58:00,
2013-05-21 04:13:00,61.2,61.0,30.01,SSE,155,0.0,0.0,99,0.00,,,0.00,weatherlink.com 1.10,2013-05-21 09:13:00,
2013-05-21 04:28:00,61.2,61.0,30.01,SE,134,1.0,1.0,99,0.00,,,0.00,weatherlink.com 1.10,2013-05-21 09:28:00,
2013-05-21 04:43:00,61.8,62.0,30.03,SSE,150,0.0,0.0,99,0.00,,,0.00,weatherlink.com 1.10,2013-05-21 09:43:00,
2013-05-21 04:58:00,62.0,62.0,30.03,SSE,149,0.0,1.0,99,0.00,,,0.00,weatherlink.com 1.10,2013-05-21 09:58:00,
2013-05-21 05:13:00,61.3,61.0,30.03,SSE,149,0.0,0.0,99,0.00,,,0.00,weatherlink.com 1.10,2013-05-21 10:13:00,
2013-05-21 05:28:00,60.7,61.0,30.04,SSE,150,0.0,0.0,99,0.00,,,0.00,weatherlink.com 1.10,2013-05-21 10:28:00,
2013-05-21 05:43:00,60.9,61.0,30.04,SSE,149,0.0,1.0,99,0.00,,,0.00,weatherlink.com 1.10,2013-05-21 10:43:00,
2013-05-21 05:58:00,60.7,61.0,30.05,SSE,149,0.0,0.0,99,0.00,,,0.00,weatherlink.com 1.10,2013-05-21 10:58:00,
2013-05-21 06:13:00,61.2,61.0,30.06,SSE,149,0.0,0.0,99,0.00,,,0.00,weatherlink.com 1.10,2013-05-21 11:13:00,
2013-05-21 06:28:00,62.0,62.0,30.06,SSE,149,0.0,0.0,99,0.00,,,0.00,weatherlink.com 1.10,2013-05-21 11:28:00,
2013-05-21 06:43:00,63.7,64.0,30.06,SSE,149,0.0,0.0,99,0.00,,,0.00,weatherlink.com 1.10,2013-05-21 11:43:00,
2013-05-21 06:58:00,65.4,65.0,30.06,SSE,150,0.0,0.0,99,0.00,,,0.00,weatherlink.com 1.10,2013-05-21 11:58:00,
2013-05-21 07:13:00,67.5,67.0,30.06,SSE,149,0.0,0.0,99,0.00,,,0.00,weatherlink.com 1.10,2013-05-21 12:13:00,
2013-05-21 07:28:00,69.0,69.0,30.06,ESE,103,0.0,1.0,99,0.00,,,0.00,weatherlink.com 1.10,2013-05-21 12:28:00,
2013-05-21 07:43:00,71.0,70.0,30.06,SE,131,1.0,2.0,98,0.00,,,0.00,weatherlink.com 1.10,2013-05-21 12:43:00,
2013-05-21 07:58:00,72.8,71.0,30.06,SE,131,2.0,2.0,95,0.00,,,0.00,weatherlink.com 1.10,2013-05-21 12:58:00,
2013-05-21 08:14:00,74.8,72.0,30.05,WSW,255,1.0,2.0,92,0.00,,,0.00,weatherlink.com 1.10,2013-05-21 13:14:00,
2013-05-21 08:29:00,76.7,73.0,30.05,SE,141,0.0,1.0,88,0.00,,,0.00,weatherlink.com 1.10,2013-05-21 13:29:00,
2013-05-21 08:44:00,77.8,72.0,30.05,SSE,153,0.0,2.0,82,0.00,,,0.00,weatherlink.com 1.10,2013-05-21 13:44:00,
2013-05-21 08:59:00,78.7,72.0,30.05,SSW,207,2.0,3.0,81,0.00,,,0.00,weatherlink.com 1.10,2013-05-21 13:59:00,
2013-05-21 09:14:00,79.9,73.0,30.04,SSE,160,2.0,3.0,79,0.00,,,0.00,weatherlink.com 1.10,2013-05-21 14:14:00,
2013-05-21 09:29:00,80.7,73.0,30.04,SSE,156,1.0,4.0,78,0.00,,,0.00,weatherlink.com 1.10,2013-05-21 14:29:00,
2013-05-21 09:44:00,80.3,74.0,30.04,SE,143,5.0,6.0,80,0.00,,,0.00,weatherlink.com 1.10,2013-05-21 14:44:00,
2013-05-21 09:59:00,79.9,73.0,30.04,SE,132,5.0,5.0,79,0.00,,,0.00,weatherlink.com 1.10,2013-05-21 14:59:00,
2013-05-21 10:14:00,79.8,72.0,30.04,SSE,149,4.0,7.0,78,0.00,,,0.00,weatherlink.com 1.10,2013-05-21 15:14:00,
2013-05-21 10:29:00,80.5,74.0,30.04,SE,138,5.0,7.0,80,0.00,,,0.00,weatherlink.com 1.10,2013-05-21 15:29:00,
2013-05-21 10:44:00,81.4,72.0,30.04,SSE,153,4.0,6.0,74,0.00,,,0.00,weatherlink.com 1.10,2013-05-21 15:44:00,
2013-05-21 10:59:00,81.7,74.0,30.04,SSE,158,3.0,8.0,77,0.00,,,0.00,weatherlink.com 1.10,2013-05-21 15:59:00,
2013-05-21 11:14:00,-999.0,-99.9,30.04,North,-999,-999.0,-999.0,-999,0.00,,,0.00,weatherlink.com 1.10,2013-05-21 16:14:00,
2013-05-21 11:29:00,-999.0,-99.9,30.04,North,-999,-999.0,-999.0,-999,0.00,,,0.00,weatherlink.com 1.10,2013-05-21 16:29:00,
2013-05-21 11:44:00,-999.0,-99.9,30.04,North,-999,-999.0,-999.0,-999,0.00,,,0.00,weatherlink.com 1.10,2013-05-21 16:44:00,
2013-05-21 11:59:00,-999.0,-99.9,30.03,North,-999,-999.0,-999.0,-999,0.00,,,0.00,weatherlink.com 1.10,2013-05-21 16:59:00,
2013-05-21 12:14:00,-999.0,-99.9,30.03,North,-999,-999.0,-999.0,-999,0.00,,,0.00,weatherlink.com 1.10,2013-05-21 17:14:00,
2013-05-21 12:29:00,-999.0,-99.9,30.02,North,-999,-999.0,-999.0,-999,0.00,,,0.00,weatherlink.com 1.10,2013-05-21 17:29:00,
2013-05-21 12:44:00,-999.0,-99.9,30.02,North,-999,-999.0,-999.0,-999,0.00,,,0.00,weatherlink.com 1.10,2013-05-21 17:44:00,
2013-05-21 12:59:00,-999.0,-99.9,30.02,North,-999,-999.0,-999.0,-999,0.00,,,0.00,weatherlink.com 1.10,2013-05-21 17:59:00,
2013-05-21 13:15:00,-999.0,-99.9,30.02,North,-999,-999.0,-999.0,-999,0.00,,,0.00,weatherlink.com 1.10,2013-05-21 18:15:00,
2013-05-21 13:30:00,-999.0,-99.9,30.02,North,-999,-999.0,-999.0,-999,0.00,,,0.00,weatherlink.com 1.10,2013-05-21 18:30:00,
2013-05-21 13:45:00,-999.0,-99.9,30.01,North,-999,-999.0,-999.0,-999,0.00,,,0.00,weatherlink.com 1.10,2013-05-21 18:45:00,
2013-05-21 13:59:00,-999.0,-99.9,30.01,North,-999,-999.0,-999.0,-999,0.00,,,0.00,weatherlink.com 1.10,2013-05-21 18:59:00,
2013-05-21 14:15:00,-999.0,-99.9,30.01,North,-999,-999.0,-999.0,-999,0.00,,,0.00,weatherlink.com 1.10,2013-05-21 19:15:00,
2013-05-21 14:30:00,-999.0,-99.9,30.00,North,-999,-999.0,-999.0,-999,0.00,,,0.00,weatherlink.com 1.10,2013-05-21 19:30:00,
2013-05-21 14:45:00,-999.0,-99.9,29.99,North,-999,-999.0,-999.0,-999,0.00,,,0.00,weatherlink.com 1.10,2013-05-21 19:45:00,
2013-05-21 15:00:00,-999.0,-99.9,29.98,North,-999,-999.0,-999.0,-999,0.00,,,0.00,weatherlink.com 1.10,2013-05-21 20:00:00,
2013-05-21 15:15:00,86.0,69.0,29.98,SSE,149,2.0,7.0,58,0.00,,,0.00,weatherlink.com 1.10,2013-05-21 20:15:00,
2013-05-21 15:45:00,86.3,70.0,29.96,South,184,3.0,13.0,59,0.00,,,0.00,weatherlink.com 1.10,2013-05-21 20:45:00,
2013-05-21 16:00:00,86.8,70.0,29.95,ESE,116,1.0,4.0,57,0.00,,,0.00,weatherlink.com 1.10,2013-05-21 21:00:00,
2013-05-21 16:15:00,86.0,70.0,29.95,ESE,107,2.0,7.0,59,0.00,,,0.00,weatherlink.com 1.10,2013-05-21 21:15:00,
2013-05-21 16:30:00,86.4,70.0,29.94,SSE,159,3.0,6.0,58,0.00,,,0.00,weatherlink.com 1.10,2013-05-21 21:30:00,
2013-05-21 16:45:00,86.0,69.0,29.94,West,273,1.0,9.0,57,0.00,,,0.00,weatherlink.com 1.10,2013-05-21 21:45:00,
2013-05-21 17:00:00,84.5,70.0,29.93,SE,132,3.0,7.0,61,0.00,,,0.00,weatherlink.com 1.10,2013-05-21 22:00:00,
2013-05-21 17:15:00,84.8,69.0,29.92,SE,139,3.0,8.0,60,0.00,,,0.00,weatherlink.com 1.10,2013-05-21 22:15:00,
2013-05-21 17:30:00,84.5,69.0,29.91,SSE,166,5.0,6.0,60,0.00,,,0.00,weatherlink.com 1.10,2013-05-21 22:30:00,
2013-05-21 17:45:00,84.8,68.0,29.91,ESE,113,2.0,5.0,58,0.00,,,0.00,weatherlink.com 1.10,2013-05-21 22:45:00,
2013-05-21 18:01:00,84.0,69.0,29.90,SSE,147,2.0,6.0,61,0.00,,,0.00,weatherlink.com 1.10,2013-05-21 23:01:00,
2013-05-21 18:16:00,83.5,70.0,29.90,SE,134,3.0,4.0,63,0.00,,,0.00,weatherlink.com 1.10,2013-05-21 23:16:00,
2013-05-21 18:31:00,83.0,70.0,29.89,ESE,104,2.0,5.0,64,0.00,,,0.00,weatherlink.com 1.10,2013-05-21 23:31:00,
2013-05-21 18:46:00,82.3,69.0,29.89,ESE,105,2.0,5.0,65,0.00,,,0.00,weatherlink.com 1.10,2013-05-21 23:46:00,
2013-05-21 19:01:00,80.7,70.0,29.89,SE,146,2.0,4.0,69,0.00,,,0.00,weatherlink.com 1.10,2013-05-22 00:01:00,
2013-05-21 19:16:00,79.5,69.0,29.89,SSE,155,3.0,7.0,71,0.00,,,0.00,weatherlink.com 1.10,2013-05-22 00:16:00,
2013-05-21 19:31:00,78.5,69.0,29.91,SE,145,0.0,1.0,73,0.00,,,0.00,weatherlink.com 1.10,2013-05-22 00:31:00,
2013-05-21 19:46:00,77.0,69.0,29.91,ESE,122,0.0,1.0,76,0.00,,,0.00,weatherlink.com 1.10,2013-05-22 00:46:00,
2013-05-21 20:01:00,75.4,69.0,29.92,ESE,122,0.0,0.0,79,0.00,,,0.00,weatherlink.com 1.10,2013-05-22 01:01:00,
2013-05-21 20:16:00,74.0,69.0,29.93,ESE,122,0.0,0.0,84,0.00,,,0.00,weatherlink.com 1.10,2013-05-22 01:16:00,
2013-05-21 20:31:00,73.2,69.0,29.95,ESE,122,0.0,0.0,86,0.00,,,0.00,weatherlink.com 1.10,2013-05-22 01:31:00,
2013-05-21 20:46:00,71.9,68.0,29.95,ESE,122,0.0,0.0,88,0.00,,,0.00,weatherlink.com 1.10,2013-05-22 01:46:00,
2013-05-21 21:01:00,70.9,68.0,29.96,SE,131,0.0,1.0,91,0.00,,,0.00,weatherlink.com 1.10,2013-05-22 02:01:00,
2013-05-21 21:16:00,70.6,68.0,29.96,SE,131,0.0,0.0,92,0.00,,,0.00,weatherlink.com 1.10,2013-05-22 02:16:00,
2013-05-21 21:31:00,69.7,68.0,29.96,SE,125,0.0,1.0,94,0.00,,,0.00,weatherlink.com 1.10,2013-05-22 02:31:00,
2013-05-21 21:46:00,69.2,68.0,29.96,SE,127,0.0,0.0,95,0.00,,,0.00,weatherlink.com 1.10,2013-05-22 02:46:00,
2013-05-21 22:01:00,68.9,68.0,29.97,SSW,204,0.0,0.0,95,0.00,,,0.00,weatherlink.com 1.10,2013-05-22 03:01:00,
2013-05-21 22:16:00,68.3,67.0,29.97,SSW,205,0.0,1.0,96,0.00,,,0.00,weatherlink.com 1.10,2013-05-22 03:16:00,
2013-05-21 22:31:00,68.2,67.0,29.97,SSW,204,0.0,0.0,96,0.00,,,0.00,weatherlink.com 1.10,2013-05-22 03:31:00,
2013-05-21 22:46:00,67.9,67.0,29.97,SE,145,0.0,1.0,97,0.00,,,0.00,weatherlink.com 1.10,2013-05-22 03:46:00,
2013-05-21 23:01:00,67.8,67.0,29.97,SE,146,0.0,0.0,97,0.00,,,0.00,weatherlink.com 1.10,2013-05-22 04:01:00,
2013-05-21 23:16:00,67.7,67.0,29.97,SE,146,0.0,0.0,97,0.00,,,0.00,weatherlink.com 1.10,2013-05-22 04:16:00,
2013-05-21 23:31:00,67.0,66.0,29.96,SE,145,0.0,0.0,97,0.00,,,0.00,weatherlink.com 1.10,2013-05-22 04:31:00,
2013-05-21 23:46:00,67.0,66.0,29.95,SE,143,0.0,1.0,97,0.00,,,0.00,weatherlink.com 1.10,2013-05-22 04:46:00,